[[{"header":{"parameterUnit":"m.s-1","parameterCategory":1,"la1":30.2991,"la2":30.254,"lo1":-89.0895,"lo2":-89.0444,"dy":0.0017,"dx":0.0017,"nx":28,"ny":28,"refTime":"2024-06-10T09:00:00:Z","depth":0,"parameterNumber":2,"parameterNumberName":"U-component_of_WINDS"},"data":[0,0,0,0,0,0,0,0,0,0,0,0,0,0,0,0,0,0,0,0,0,0,0,0,0,0,0,0,0,0,0,0,0,0,0,0,0,0,0,0,0,0,0,0,0,0,0,0,0,0,0,0,0,0,0,0,0,0,-2.4197,-2.4196,0,-2.4118,-2.4117,-2.4117,-2.398,-2.3977,-2.3975,-2.3972,-2.3895,-2.3895,-2.3895,0,0,0,0,0,0,0,0,0,0,0,0,0,-2.4233,-2.4233,-2.4197,-2.4196,-2.4195,-2.4119,-2.4117,-2.4116,-2.398,-2.3977,-2.3974,-2.3971,-2.3895,-2.3895,-2.3895,0,0,0,0,0,0,0,0,0,0,0,0,0,-2.4192,-2.4233,-2.4197,-2.4118,-2.411,-2.4119,-2.4117,-2.4116,-2.3981,-2.3977,-2.3973,-2.3969,-2.3894,-2.3895,-2.3896,-2.3976,0,0,-2.3897,-2.3897,0,0,0,0,0,0,0,0,-2.4195,-2.4191,-2.413,-2.4123,-2.4114,-2.4055,-2.4101,-2.4069,-2.3982,-2.403,-2.3972,-2.3968,-2.3951,-2.3947,-2.3941,-2.3973,-2.3969,-2.3897,-2.3897,-2.3898,-2.3898,0,0,0,0,0,0,0,-2.4198,-2.4194,-2.4166,-2.413,-2.412,-2.4087,-2.4077,-2.4095,-2.4014,-2.4025,-2.4015,-2.4008,-2.3946,-2.3941,-2.3938,-2.3968,-2.3897,-2.3898,-2.3898,-2.3898,-2.4065,-2.4069,0,0,0,0,0,0,-2.4212,-2.4197,-2.4168,-2.4164,-2.4146,-2.409,-2.4079,-2.4078,-2.4013,-2.3999,-2.4011,-2.4002,-2.3942,-2.3938,-2.3935,-2.4026,-2.3898,-2.3898,-2.3899,-2.4061,-2.4066,-2.407,0,0,0,0,0,0,-2.4213,-2.421,-2.4172,-2.4177,-2.417,-2.4093,-2.4094,-2.4078,-2.4073,-2.4002,-2.3987,-2.402,-2.3938,-2.3934,-2.3967,-2.4022,-2.3898,-2.3899,-2.4056,-2.4062,-2.4068,-2.421,0,0,0,0,0,0,-2.4215,-2.4212,-2.4241,-2.4179,-2.417,-2.4205,-2.4097,-2.408,-2.4074,-2.406,-2.4007,-2.3994,-2.3935,-2.3967,-2.3968,-2.402,-2.3899,-2.4051,-2.4059,-2.4066,-2.4201,-2.4221,-2.4238,0,0,0,0,0,-2.4216,-2.4284,-2.4243,-2.424,-2.4205,-2.4208,-2.4203,-2.4133,-2.4078,-2.4108,-2.4063,-2.3996,-2.4016,-2.3972,-2.3971,-2.4025,-2.4047,-2.4056,-2.4065,-2.4192,-2.4217,-2.4237,0,0,0,0,0,0,-2.4355,-2.4275,-2.4228,-2.4278,-2.4251,-2.4185,-2.422,-2.4161,-2.415,-2.4138,-2.4053,-2.4042,-2.4087,-2.4059,-2.4011,-2.4101,-2.4021,-2.4031,-2.4118,-2.414,-2.4159,-2.4165,-2.39,0,0,0,0,0,-2.4391,-2.44,-2.4329,-2.438,-2.4369,-2.4297,-2.4296,-2.4244,-2.4213,-2.4202,-2.4159,-2.4132,-2.4132,-2.4135,-2.4131,-2.4195,-2.4183,-2.4232,-2.4251,-2.4267,-2.4277,-2.4311,-2.4332,-2.41,-2.41,-2.41,0,0,-2.4467,-2.4424,-2.4434,-2.4407,-2.438,-2.4392,-2.4288,-2.4305,-2.4314,-2.4204,-2.4233,-2.4201,-2.4166,-2.4216,-2.4236,-2.4194,-2.4338,-2.4278,-2.4292,-2.4293,-2.4322,-2.4344,-2.4364,-2.4107,-2.4106,-2.4105,0,0,-2.461,-2.4578,-2.4617,-2.4592,-2.4553,-2.4505,-2.4515,-2.4458,-2.4432,-2.446,-2.4378,-2.4388,-2.439,-2.4368,-2.4358,-2.4495,-2.4434,-2.4497,-2.4595,-2.4629,-2.4647,-2.4663,-2.4714,-2.4733,-2.4506,-2.4507,-2.4507,0,-2.4709,-2.4723,-2.4645,-2.4667,-2.4659,-2.4559,-2.46,-2.458,-2.4542,-2.4539,-2.4492,-2.4494,-2.4463,-2.4507,-2.4541,-2.4535,-2.4545,-2.4503,-2.4651,-2.4666,-2.468,-2.4727,-2.4746,-2.4515,-2.4514,-2.4513,-2.4512,0,-2.4847,-2.4858,-2.4895,-2.486,-2.4855,-2.4887,-2.4816,-2.482,-2.477,-2.4727,-2.4758,-2.4717,-2.4705,-2.4711,-2.4662,-2.4749,-2.4725,-2.4666,-2.4584,-2.4711,-2.4754,-2.4772,-2.4526,-2.4523,-2.4521,-2.4519,0,0,-2.5076,-2.4998,-2.5013,-2.4997,-2.4946,-2.4954,-2.4982,-2.4968,-2.4975,-2.4952,-2.4975,-2.4979,-2.4925,-2.4913,-2.4861,-2.4891,-2.5005,-2.4828,-2.4826,-2.4864,-2.5101,-2.5147,-2.5169,-2.4963,-2.4966,-2.4969,-2.5105,0,-2.5209,-2.5251,-2.5183,-2.5241,-2.5252,-2.5158,-2.5183,-2.5156,-2.5117,-2.5121,-2.5078,-2.5084,-2.501,-2.5003,-2.5029,-2.4985,-2.5051,-2.4974,-2.4985,-2.4986,-2.4998,-2.5191,-2.5239,-2.537,-2.5121,-2.5124,-2.5126,0,-2.5371,-2.5356,-2.5416,-2.5363,-2.5365,-2.5388,-2.5371,-2.5375,-2.5343,-2.5313,-2.5301,-2.5239,-2.5264,-2.5185,-2.522,-2.5169,-2.5169,-2.5149,-2.5152,-2.5152,-2.5065,-2.5198,-2.5409,-2.543,-2.5151,-2.5149,-2.5147,0,-2.5534,-2.5529,-2.5564,-2.5553,-2.5492,-2.551,-2.5486,-2.545,-2.5447,-2.5433,-2.543,-2.542,-2.5415,-2.5409,-2.5346,-2.5294,-2.539,-2.5304,-2.5367,-2.5369,-2.5392,-2.5392,-2.5609,-2.5391,-2.539,-2.539,-2.5389,0,-2.5691,-2.5732,-2.5636,-2.5658,-2.5702,-2.5624,-2.5669,-2.5635,-2.5604,-2.5619,-2.5538,-2.5554,-2.547,-2.5477,-2.5429,-2.5466,-2.5464,-2.5442,-2.5429,-2.545,-2.5453,-2.545,-2.544,-2.5395,-2.5394,-2.5393,-2.5392,0,-2.5881,-2.5818,-2.5851,-2.5791,-2.5777,-2.5812,-2.576,-2.5779,-2.5735,-2.5756,-2.5756,-2.5688,-2.5693,-2.563,-2.5622,-2.559,-2.565,-2.562,-2.5661,-2.5652,-2.5719,-2.5715,-2.5943,-2.597,-2.5734,-2.5736,-2.5738,0,-2.5986,-2.6015,-2.5958,-2.5962,-2.5942,-2.5949,-2.5945,-2.587,-2.587,-2.5837,-2.586,-2.5858,-2.5853,-2.5865,-2.5816,-2.5811,-2.5781,-2.5862,-2.578,-2.5801,-2.5785,-2.5785,-2.5788,-2.5879,-2.5882,-2.5885,-2.5887,0,-2.618,-2.6148,-2.6145,-2.6133,-2.6131,-2.6118,-2.61,-2.6108,-2.6026,-2.6031,-2.6035,-2.6031,-2.6023,-2.6023,-2.6009,-2.5985,-2.5924,-2.5913,-2.5927,-2.595,-2.5973,-2.5964,-2.571,-2.5908,-2.5906,-2.5904,-2.5903,-2.5902,-2.6331,-2.6354,-2.6317,-2.6318,-2.6296,-2.6281,-2.6297,-2.6255,-2.6256,-2.6244,-2.62,-2.6212,-2.6181,-2.6155,-2.6137,-2.6146,-2.6107,-2.6128,-2.6134,-2.614,-2.6154,-2.5971,-2.6143,-2.6143,-2.6142,-2.6141,-2.6141,0,-2.6523,-2.6495,-2.6496,-2.6473,-2.6475,-2.6415,-2.6392,-2.6398,-2.6409,-2.6385,-2.6381,-2.6387,-2.6387,-2.6338,-2.6332,-2.635,-2.6322,-2.6351,-2.635,-2.6346,-2.6188,-2.6177,-2.6374,-2.6374,-2.6374,-2.6374,-2.6374,-2.6374,-2.6622,-2.6657,-2.6621,-2.6645,-2.6617,-2.6628,-2.662,-2.6607,-2.6587,-2.6597,-2.6596,-2.6564,-2.6531,-2.6522,-2.6521,-2.6506,-2.6509,-2.6549,-2.6526,-2.6379,-2.6357,-2.6335,-2.6324,-2.6549,-2.655,-2.6682,-2.6684,-2.6685]},{"header":{"parameterUnit":"m.s-1","parameterCategory":1,"la1":30.2991,"la2":30.254,"lo1":-89.0895,"lo2":-89.0444,"dy":0.0017,"dx":0.0017,"nx":28,"ny":28,"refTime":"2024-06-10T09:00:00:Z","depth":0,"parameterNumber":3,"parameterNumberName":"V-component_of_WINDS"},"data":[0,0,0,0,0,0,0,0,0,0,0,0,0,0,0,0,0,0,0,0,0,0,0,0,0,0,0,0,0,0,0,0,0,0,0,0,0,0,0,0,0,0,0,0,0,0,0,0,0,0,0,0,0,0,0,0,0,0,0.1226,0.1225,0,0.1164,0.1163,0.1162,0.1141,0.1142,0.1142,0.1142,0.1076,0.1074,0.1072,0,0,0,0,0,0,0,0,0,0,0,0,0,0.1326,0.1325,0.1226,0.1225,0.1225,0.1164,0.1163,0.1162,0.1141,0.1142,0.1142,0.1142,0.1077,0.1075,0.1072,0,0,0,0,0,0,0,0,0,0,0,0,0,0.1275,0.1324,0.1226,0.1207,0.1205,0.1164,0.1163,0.1162,0.1141,0.1142,0.1142,0.1143,0.1078,0.1075,0.1072,0.1045,0,0,0.1063,0.1061,0,0,0,0,0,0,0,0,0.1278,0.1272,0.1211,0.1208,0.1206,0.1161,0.1174,0.1122,0.1141,0.1165,0.1142,0.1143,0.1104,0.1099,0.1086,0.1042,0.1039,0.1062,0.1061,0.1059,0.1058,0,0,0,0,0,0,0,0.1282,0.1274,0.1201,0.121,0.1207,0.1201,0.1194,0.1164,0.1133,0.1163,0.1162,0.1155,0.1103,0.1089,0.1084,0.1038,0.1062,0.106,0.1058,0.1057,0.0968,0.0967,0,0,0,0,0,0,0.1289,0.1277,0.1203,0.1199,0.1244,0.1199,0.1191,0.1175,0.1133,0.1127,0.1154,0.1154,0.1094,0.1088,0.1082,0.1047,0.1059,0.1056,0.1055,0.0968,0.0967,0.0967,0,0,0,0,0,0,0.1291,0.1282,0.1206,0.1238,0.1228,0.1197,0.1178,0.1173,0.116,0.1127,0.1121,0.1146,0.1094,0.1086,0.1054,0.1044,0.1055,0.1052,0.0969,0.0968,0.0967,0.0977,0,0,0,0,0,0,0.1294,0.1283,0.1273,0.1238,0.1226,0.118,0.1178,0.1172,0.1155,0.1154,0.1117,0.1112,0.1094,0.1059,0.1051,0.104,0.105,0.097,0.0968,0.0967,0.0977,0.0976,0.0976,0,0,0,0,0,0.1298,0.1278,0.1273,0.1264,0.1213,0.1179,0.1172,0.1153,0.1154,0.1143,0.1122,0.1113,0.1047,0.1056,0.1047,0.1035,0.097,0.0969,0.0968,0.0978,0.0977,0.0976,0,0,0,0,0,0,0.1312,0.1273,0.1267,0.1235,0.1211,0.1176,0.1161,0.1152,0.1126,0.1126,0.1102,0.1094,0.1064,0.1046,0.1057,0.1006,0.1008,0.1005,0.1019,0.1017,0.1017,0.1021,0.1047,0,0,0,0,0,0.1312,0.1289,0.1256,0.1231,0.1219,0.1193,0.1177,0.1164,0.1137,0.1127,0.1103,0.1077,0.105,0.1033,0.1007,0.0975,0.0966,0.0963,0.0962,0.0961,0.0959,0.094,0.0937,0.0963,0.0963,0.0963,0,0,0.1311,0.1287,0.1273,0.1233,0.1213,0.1188,0.1184,0.1158,0.1139,0.1123,0.1091,0.1073,0.1042,0.101,0.0994,0.0994,0.095,0.096,0.096,0.0957,0.0938,0.0936,0.0933,0.0962,0.0962,0.0962,0,0,0.1297,0.1276,0.1253,0.1233,0.1202,0.1184,0.1179,0.1145,0.1133,0.1101,0.1087,0.1064,0.1019,0.0998,0.0981,0.0958,0.0949,0.095,0.0946,0.0928,0.0926,0.0924,0.0914,0.0911,0.0948,0.0948,0.0948,0,0.1299,0.1262,0.1243,0.1217,0.12,0.1184,0.116,0.1141,0.1103,0.1091,0.1092,0.1034,0.1013,0.0975,0.0969,0.0957,0.0949,0.0954,0.0928,0.0926,0.0923,0.0914,0.0911,0.0948,0.0948,0.0948,0.0948,0,0.1266,0.124,0.1225,0.1189,0.117,0.1146,0.1122,0.1105,0.1094,0.1076,0.1043,0.1017,0.0984,0.0975,0.0963,0.0935,0.0936,0.0933,0.0933,0.0922,0.0912,0.0909,0.0949,0.0949,0.0949,0.0949,0,0,0.1258,0.1212,0.1206,0.1189,0.1154,0.1134,0.1109,0.1077,0.1063,0.1037,0.1015,0.0977,0.0974,0.0955,0.0941,0.0925,0.0907,0.0923,0.0922,0.092,0.0873,0.0875,0.0871,0.0902,0.0901,0.09,0.0875,0,0.1238,0.1192,0.1174,0.1136,0.1112,0.1097,0.1075,0.1051,0.1033,0.101,0.0991,0.0964,0.0962,0.0951,0.0934,0.0913,0.0897,0.0915,0.0879,0.0878,0.0886,0.0866,0.0868,0.0845,0.0872,0.0871,0.0871,0,0.1208,0.1182,0.1142,0.111,0.1099,0.1079,0.1049,0.1027,0.0999,0.0987,0.0966,0.0954,0.0926,0.093,0.089,0.0903,0.0887,0.0875,0.0873,0.0868,0.0872,0.0859,0.0838,0.0834,0.0865,0.0865,0.0866,0,0.1204,0.116,0.113,0.1116,0.1078,0.1064,0.1047,0.102,0.1002,0.0976,0.0964,0.0935,0.0918,0.0896,0.0875,0.088,0.0837,0.084,0.0826,0.0826,0.0816,0.0817,0.0791,0.0809,0.0809,0.0809,0.0809,0,0.1183,0.1159,0.1128,0.1109,0.1082,0.1061,0.1034,0.1016,0.0992,0.0969,0.0955,0.0934,0.0909,0.0884,0.0868,0.0837,0.083,0.082,0.0815,0.082,0.0821,0.0808,0.0808,0.0808,0.0808,0.0809,0.0809,0,0.1173,0.1152,0.1118,0.1085,0.1076,0.1057,0.1028,0.1009,0.0992,0.0963,0.0955,0.0927,0.0898,0.0875,0.0837,0.0826,0.0793,0.0789,0.0802,0.08,0.0787,0.0788,0.075,0.0743,0.0768,0.0768,0.0767,0,0.116,0.1141,0.1106,0.109,0.1073,0.1048,0.1029,0.1008,0.099,0.0957,0.0942,0.0911,0.0886,0.0839,0.0815,0.0785,0.078,0.0769,0.0775,0.078,0.0778,0.0778,0.0776,0.0767,0.0767,0.0767,0.0767,0,0.1139,0.1129,0.1104,0.1074,0.1053,0.1029,0.1005,0.0993,0.0967,0.0947,0.0917,0.0897,0.0858,0.0827,0.0795,0.0778,0.0767,0.0765,0.076,0.0764,0.0772,0.0766,0.0798,0.0766,0.0766,0.0766,0.0766,0.0766,0.1126,0.1108,0.108,0.1052,0.1032,0.1009,0.099,0.097,0.0944,0.0911,0.09,0.0869,0.0841,0.0797,0.0779,0.0753,0.0753,0.0746,0.0744,0.0742,0.0742,0.0777,0.0748,0.0748,0.0748,0.0748,0.0748,0,0.1102,0.1084,0.1058,0.1025,0.1002,0.0996,0.0969,0.095,0.0923,0.0898,0.0873,0.0838,0.0808,0.0782,0.0751,0.0736,0.073,0.0728,0.0728,0.0724,0.0744,0.0751,0.0733,0.0733,0.0733,0.0733,0.0733,0.0733,0.1087,0.1056,0.1043,0.1002,0.0983,0.0952,0.0937,0.0916,0.0896,0.0857,0.0833,0.0816,0.079,0.0758,0.073,0.0723,0.0711,0.071,0.0702,0.0721,0.0723,0.0724,0.073,0.0708,0.0708,0.0683,0.0683,0.0683]}]]